Tracking 27112 objects as of 27-Mar-2023
HD Live streaming from Space Station
objects crossing your sky now

NUSAT-10 CAROLINE

Track NUSAT-10 CAROLINE now!
10-day predictions


NORAD ID: 46832
Int'l Code: 2020-079F
Perigee: 414.2 km
Apogee: 418.3 km
Inclination: 97.2 °
Period: 92.7 minutes
Semi major axis: 6787 km
RCS: Unknown
Launch date: November 6, 2020
Source: Argentina (ARGN)
Launch site: Taiyaun Space Center, China (TSC)
Your satellite tracking list
Your tracking list is empty




NASA's NSSDC Master Catalog

Two Line Element Set (TLE):
1 46832U 20079F   23085.84696382  .00067268  00000-0  10877-2 0  9999
2 46832  97.1626 157.6745 0003011  14.7683  96.8555 15.52615646133674
Source of the keplerian elements: AFSPC